Location: Grieser Field
(39.7333°N, 81.7975°W)
Time: 09:59:32
(UTC-05:00)

HST - Visible Passes

Search period start: 26 November 2014 00:00
Search period end: 06 December 2014 00:00
Orbit: 545 x 550 km, 28.5° (Epoch: 24 November)

Date Brightness Start Highest point End Pass type
(mag) Time Alt. Az. Time Alt. Az. Time Alt. Az.
26 Nov 3.0 05:45:40 13° SW 05:47:33 17° S 05:50:18 10° SE visible
27 Nov 2.9 05:38:39 15° SSW 05:39:53 16° S 05:42:33 10° SE visible
28 Nov 3.0 05:31:36 15° SSW 05:32:13 15° S 05:34:42 10° SSE visible
29 Nov 3.1 05:24:32 14° SSW 05:24:32 14° SSW 05:26:43 10° SSE visible
30 Nov 3.3 05:17:28 12° S 05:17:28 12° S 05:18:33 10° S visible
